Starlink 32587

operational
NORAD ID: 62180 Int'l Des: 2024-225 Owner: SPXS Country: US Constellation: starlink
LEOCIRCULAR

Über Starlink 32587

Beschreibung wird geladen...

Live-Position

3D-Globus wird geladen...

Nächste Überflüge

Höhenverlauf

Altitude vs Time

uPlot chart will show altitude changes over time

Zweizeiliger Elementsatz

1 62180U 24225T 25256.68395105 .00004383 00000-0 37479-3 0 9990
2 62180 70.0000 250.5643 0003136 269.6220 90.4580 14.98337062 43366
Epoch: 13. Sept. 2025 • Age: 43 hours

Aktueller Status

Höhe 595.0 km
Geschwindigkeit 7.56 km/s
Subsatellitenpunkt -68.63°S, 29.46°W
Startdatum 30. Nov. 2024
Alter 0.7 years
Typ internet

Technische Details

Klassifizierung Payload
Masse 730.00 kg
Trockenmasse 700.00 kg
Gesamtmasse 730.00 kg
Länge 0.30 m
Durchmesser 4.10 m
Spannweite 29.00 m
Form Box + pan
Hersteller SPXS
Bus-Typ Starlink V2M
Phasenstatus In Orbit
Besitzer/Staat SPXS/US

Große Konstellationen

Loading constellations...